TimeEDT,TemperatureF,Dew PointF,Humidity,Sea Level PressureIn,VisibilityMPH,Wind Direction,Wind SpeedMPH,Gust SpeedMPH,PrecipitationIn,Events,Conditions,WindDirDegrees,DateUTC
12:15 AM,46.0,38.1,74,29.90,10.0,NNW,5.8,-,N/A,,Clear,340,2012-10-07 04:15:00
12:35 AM,47.7,37.4,68,29.91,10.0,West,4.6,-,N/A,,Clear,280,2012-10-07 04:35:00
1:15 AM,46.6,37.4,70,29.93,10.0,WNW,5.8,-,N/A,,Clear,290,2012-10-07 05:15:00
1:35 AM,46.4,37.4,71,29.93,10.0,WNW,6.9,-,N/A,,Clear,290,2012-10-07 05:35:00
1:55 AM,45.9,37.4,72,29.94,10.0,West,5.8,-,N/A,,Clear,280,2012-10-07 05:55:00
2:15 AM,44.8,37.4,75,29.94,10.0,WNW,3.5,-,N/A,,Clear,290,2012-10-07 06:15:00
2:35 AM,43.7,37.6,79,29.94,10.0,WNW,3.5,-,N/A,,Clear,300,2012-10-07 06:35:00
3:15 AM,39.7,38.3,95,29.94,10.0,Calm,Calm,-,N/A,,Clear,0,2012-10-07 07:15:00
3:35 AM,38.8,37.9,97,29.95,10.0,Calm,Calm,-,N/A,,Clear,0,2012-10-07 07:35:00
3:55 AM,38.5,37.0,95,29.96,10.0,Calm,Calm,-,N/A,,Clear,0,2012-10-07 07:55:00
4:15 AM,37.8,36.9,97,29.96,10.0,ENE,3.5,-,N/A,,Clear,60,2012-10-07 08:15:00
4:35 AM,38.8,38.1,97,29.97,10.0,Calm,Calm,-,N/A,,Clear,0,2012-10-07 08:35:00
4:55 AM,37.6,36.9,97,29.98,10.0,Calm,Calm,-,N/A,,Clear,0,2012-10-07 08:55:00
5:15 AM,37.6,37.0,98,29.98,10.0,Calm,Calm,-,N/A,,Clear,0,2012-10-07 09:15:00
5:35 AM,38.5,37.9,98,29.99,10.0,Calm,Calm,-,N/A,,Clear,0,2012-10-07 09:35:00
5:55 AM,37.8,37.0,97,30.00,10.0,WNW,5.8,-,N/A,,Clear,300,2012-10-07 09:55:00
6:15 AM,40.1,38.3,93,30.00,10.0,West,8.1,-,N/A,,Clear,280,2012-10-07 10:15:00
6:35 AM,40.6,38.3,91,29.99,10.0,WNW,3.5,-,N/A,,Clear,290,2012-10-07 10:35:00
6:55 AM,40.1,37.9,92,30.00,10.0,ENE,3.5,-,N/A,,Clear,70,2012-10-07 10:55:00
7:15 AM,40.1,38.5,94,30.01,10.0,Calm,Calm,-,N/A,,Clear,0,2012-10-07 11:15:00
7:35 AM,40.5,39.2,95,30.02,10.0,Calm,Calm,-,N/A,,Clear,0,2012-10-07 11:35:00
7:55 AM,41.2,39.4,93,30.02,10.0,Calm,Calm,-,N/A,,Clear,0,2012-10-07 11:55:00
8:15 AM,43.3,40.1,88,30.01,10.0,Calm,Calm,-,N/A,,Clear,0,2012-10-07 12:15:00
8:35 AM,45.1,39.9,82,30.01,10.0,NW,3.5,-,N/A,,Mostly Cloudy,310,2012-10-07 12:35:00
8:55 AM,48.4,38.8,70,30.02,10.0,West,5.8,-,N/A,,Scattered Clouds,280,2012-10-07 12:55:00
9:15 AM,48.0,39.4,72,30.02,10.0,West,4.6,-,N/A,,Mostly Cloudy,270,2012-10-07 13:15:00
9:35 AM,48.6,38.5,68,30.03,10.0,WSW,4.6,-,N/A,,Mostly Cloudy,240,2012-10-07 13:35:00
9:55 AM,48.7,37.4,65,30.04,10.0,WNW,4.6,-,N/A,,Scattered Clouds,290,2012-10-07 13:55:00
10:15 AM,49.1,37.8,65,30.03,10.0,West,4.6,-,N/A,,Scattered Clouds,270,2012-10-07 14:15:00
10:35 AM,50.0,36.3,59,30.04,10.0,WNW,6.9,-,N/A,,Overcast,300,2012-10-07 14:35:00
10:55 AM,50.2,36.5,59,30.04,10.0,WNW,5.8,-,N/A,,Overcast,290,2012-10-07 14:55:00
11:15 AM,50.7,36.1,57,30.04,10.0,West,5.8,-,N/A,,Overcast,260,2012-10-07 15:15:00
11:35 AM,51.8,36.3,56,30.04,10.0,West,4.6,-,N/A,,Overcast,270,2012-10-07 15:35:00
11:55 AM,52.5,35.8,53,30.04,10.0,WNW,5.8,-,N/A,,Overcast,290,2012-10-07 15:55:00
12:15 PM,52.3,36.5,55,30.05,10.0,Calm,Calm,-,N/A,,Mostly Cloudy,0,2012-10-07 16:15:00
12:35 PM,52.7,37.0,55,30.04,10.0,WNW,6.9,-,N/A,,Scattered Clouds,290,2012-10-07 16:35:00
12:55 PM,52.3,37.0,56,30.04,10.0,WNW,4.6,-,N/A,,Overcast,290,2012-10-07 16:55:00
1:15 PM,52.9,36.7,54,30.04,10.0,WSW,4.6,-,N/A,,Overcast,250,2012-10-07 17:15:00
1:35 PM,53.1,35.2,51,30.03,10.0,WNW,5.8,-,N/A,,Mostly Cloudy,290,2012-10-07 17:35:00
1:55 PM,53.4,36.5,53,30.03,10.0,WNW,3.5,-,N/A,,Mostly Cloudy,300,2012-10-07 17:55:00
2:15 PM,53.2,36.3,53,30.02,10.0,West,3.5,-,N/A,,Mostly Cloudy,280,2012-10-07 18:15:00
2:35 PM,53.4,36.5,53,30.01,10.0,WNW,3.5,-,N/A,,Scattered Clouds,290,2012-10-07 18:35:00
2:55 PM,54.0,36.9,52,30.02,10.0,West,6.9,-,N/A,,Scattered Clouds,280,2012-10-07 18:55:00
3:15 PM,53.8,36.3,52,30.01,10.0,WNW,3.5,-,N/A,,Mostly Cloudy,290,2012-10-07 19:15:00
3:35 PM,54.3,35.8,50,30.01,10.0,Calm,Calm,-,N/A,,Mostly Cloudy,0,2012-10-07 19:35:00
3:55 PM,54.5,35.8,49,30.00,10.0,Calm,Calm,-,N/A,,Mostly Cloudy,0,2012-10-07 19:55:00
4:15 PM,54.0,36.1,51,30.00,10.0,Calm,Calm,-,N/A,,Mostly Cloudy,0,2012-10-07 20:15:00
4:35 PM,54.0,36.1,51,30.00,10.0,WNW,3.5,-,N/A,,Mostly Cloudy,290,2012-10-07 20:35:00
4:55 PM,53.6,36.9,53,30.00,10.0,WNW,4.6,-,N/A,,Mostly Cloudy,290,2012-10-07 20:55:00
5:15 PM,53.2,37.2,55,29.99,10.0,Calm,Calm,-,N/A,,Mostly Cloudy,0,2012-10-07 21:15:00
5:35 PM,52.9,38.8,59,30.00,10.0,Calm,Calm,-,N/A,,Mostly Cloudy,0,2012-10-07 21:35:00
5:55 PM,51.8,42.3,70,30.00,10.0,Calm,Calm,-,N/A,,Scattered Clouds,0,2012-10-07 21:55:00
6:15 PM,50.4,42.1,73,30.00,10.0,Calm,Calm,-,N/A,,Mostly Cloudy,0,2012-10-07 22:15:00
6:35 PM,49.3,43.7,81,30.00,10.0,Calm,Calm,-,N/A,,Overcast,0,2012-10-07 22:35:00
6:55 PM,48.6,42.6,80,30.01,10.0,Calm,Calm,-,N/A,,Mostly Cloudy,0,2012-10-07 22:55:00
7:15 PM,47.8,44.2,87,30.00,10.0,Calm,Calm,-,N/A,,Mostly Cloudy,0,2012-10-07 23:15:00
7:35 PM,47.7,43.9,87,29.98,10.0,Calm,Calm,-,N/A,,Scattered Clouds,0,2012-10-07 23:35:00
8:15 PM,46.4,43.7,90,29.99,10.0,Calm,Calm,-,N/A,,Scattered Clouds,0,2012-10-08 00:15:00
8:35 PM,46.8,44.6,92,30.01,10.0,Calm,Calm,-,N/A,,Mostly Cloudy,0,2012-10-08 00:35:00
8:55 PM,46.6,43.7,90,30.01,10.0,Calm,Calm,-,N/A,,Overcast,0,2012-10-08 00:55:00
9:15 PM,47.3,43.7,87,30.03,10.0,WNW,3.5,-,N/A,,Overcast,300,2012-10-08 01:15:00
9:35 PM,46.6,43.5,89,30.03,10.0,WNW,4.6,-,N/A,Rain,Light Rain,300,2012-10-08 01:35:00
9:55 PM,46.4,43.9,91,30.03,7.0,SSW,5.8,-,0.01,Rain,Rain,200,2012-10-08 01:55:00
10:15 PM,45.9,44.2,94,30.04,10.0,Calm,Calm,-,N/A,Rain,Light Rain,0,2012-10-08 02:15:00
10:35 PM,46.0,43.9,92,30.04,7.0,Calm,Calm,-,0.02,Rain,Rain,0,2012-10-08 02:35:00
10:55 PM,45.7,44.2,95,30.05,5.0,Calm,Calm,-,0.04,Rain,Rain,0,2012-10-08 02:55:00
11:15 PM,45.5,44.6,97,30.04,7.0,Calm,Calm,-,0.03,Rain,Rain,0,2012-10-08 03:15:00
11:35 PM,45.0,43.9,96,30.03,10.0,Calm,Calm,-,0.03,Rain,Light Rain,0,2012-10-08 03:35:00
11:55 PM,44.8,43.7,96,30.04,10.0,Calm,Calm,-,0.04,Rain,Light Rain,0,2012-10-08 03:55:00